Location: Eindhoven
(51.4416°N, 5.4697°E)
Time: 14:45:27
(UTC+01:00)

Vanguard 1 - Visible Passes

Search period start: 19 November 2019 00:00
Search period end: 29 November 2019 00:00
Orbit: 652 x 3831 km, 34.2° (Epoch: 18 November)

Date Brightness Start Highest point End Pass type
(mag) Time Alt. Az. Time Alt. Az. Time Alt. Az.
26 Nov 14.3 06:31:43 10° S 06:38:24 13° SSE 06:43:55 10° SE visible
27 Nov 14.1 06:49:11 10° S 06:59:12 18° SSE 07:06:44 10° ESE visible
28 Nov 13.9 07:07:55 10° SSW 07:20:02 22° SSE 07:28:34 10° ESE visible
